Location: Saluda
(35.2377°N, 82.3468°W)
Time: 15:45:38
(UTC+00:00)

SR - Pass Details

Date: 07 October 2022
Orbit: 577 x 875 km, 66.7° (Epoch: 28 November)

Event Time Altitude Azimuth Distance (km) Brightness Sun altitude
Rises 23:53:25 0° 173° (S) 3,382 ? -10.5°
Reaches altitude 10° 23:56:13 10° 160° (SSE) 2,480 ? -11.0°
Maximum altitude 00:00:52 26° 106° (ESE) 1,666 ? -12.0°
Drops below altitude 10° 00:05:36 10° 53° (NE) 2,527 ? -13.0°
Enters shadow 00:06:08 - 50° (NE) 2,692 ? -13.1°
Sets 00:08:28 0° 41° (NE) 3,459 - -13.5°
